IK7IZV Weather Reports


Display with metric or nautical units.
time (UTC)temp
F
wind
direction
speed
MPH
gust
MPH
rain 1hr
in
rain 24hr
in
rain mn
in
humidity
%
barometer
mb
20260510120041 67 184 11.0 19.0 0.00 0.00 0.00 72 1015.1
20260510114540 67 146 11.0 17.0 0.00 0.00 0.00 72 1015.2
20260510113038 67 129 8.0 17.0 0.00 0.00 0.00 72 1015.5
20260510111536 67 147 10.0 17.0 0.00 0.00 0.00 74 1015.7
20260510110038 66 126 7.0 16.0 0.00 0.00 0.00 77 1015.9
20260510104533 66 158 9.0 14.0 0.00 0.00 0.00 77 1015.8
20260510103033 67 127 9.0 14.0 0.00 0.00 0.00 76 1016.1
20260510101533 67 146 7.0 13.0 0.00 0.00 0.00 69 1016.1
20260510100030 67 147 6.0 12.0 0.00 0.00 0.00 71 1016.2
20260510094544 67 134 7.0 11.0 0.00 0.00 0.00 74 1016.3
20260510093029 68 164 6.0 8.0 0.00 0.00 0.00 73 1016.5
20260510091525 70 137 0.0 5.0 0.00 0.00 0.00 69 1016.9
20260510090024 69 210 2.0 6.0 0.00 0.00 0.00 69 1016.9
20260510084521 67 211 2.0 6.0 0.00 0.00 0.00 72 1017.2
20260510083015 67 198 0.0 2.0 0.00 0.00 0.00 73 1017.3
20260510081515 66 201 2.0 4.0 0.00 0.00 0.00 75 1017.3
20260510080014 65 143 0.0 4.0 0.00 0.00 0.00 76 1017.1
20260510074509 65 165 0.0 0.0 0.00 0.00 0.00 76 1017.2
20260510073009 65 5 0.0 0.0 0.00 0.00 0.00 75 1017.4
20260510071506 64 205 0.0 1.0 0.00 0.00 0.00 74 1017.2
20260510070008 64 227 2.0 4.0 0.00 0.00 0.00 75 1017.0
20260510064502 64 193 1.0 7.0 0.00 0.00 0.00 75 1016.8
20260510063003 63 215 2.0 8.0 0.00 0.00 0.00 75 1016.9
20260510061600 63 227 3.0 5.0 0.00 0.00 0.00 75 1017.1
20260510060100 63 211 1.0 5.0 0.00 0.00 0.00 76 1017.2
20260510054556 62 210 1.0 2.0 0.00 0.00 0.00 77 1017.0
20260510053102 62 125 0.0 0.0 0.00 0.00 0.00 79 1017.2
20260510051557 61 128 1.0 3.0 0.00 0.00 0.00 78 1017.2
20260510050054 62 140 0.0 3.0 0.00 0.00 0.00 75 1017.2
20260510044553 62 186 2.0 4.0 0.00 0.00 0.00 75 1017.3
20260510043101 62 178 0.0 0.0 0.00 0.00 0.00 75 1017.4
20260510041550 61 214 2.0 3.0 0.00 0.00 0.00 77 1017.5
20260510040049 60 198 2.0 4.0 0.00 0.00 0.00 78 1017.7
20260510034549 60 215 1.0 4.0 0.00 0.00 0.00 78 1017.8
20260510033100 60 233 1.0 3.0 0.00 0.00 0.00 77 1017.7
20260510031551 60 232 0.0 2.0 0.00 0.00 0.00 77 1017.5
20260510030049 60 215 3.0 5.0 0.00 0.00 0.00 76 1016.9
20260510024550 60 158 0.0 0.0 0.00 0.00 0.00 77 1016.9
20260510023044 59 222 2.0 6.0 0.00 0.00 0.00 77 1017.2
20260510021549 59 302 0.0 5.0 0.00 0.00 0.00 77 1017.3
20260510020043 59 258 0.0 4.0 0.00 0.00 0.00 78 1017.4
20260510014544 59 208 0.0 2.0 0.00 0.00 0.00 80 1017.6
20260510013049 58 208 1.0 5.0 0.00 0.00 0.00 81 1017.3
20260510011544 58 274 1.0 5.0 0.00 0.00 0.00 81 1017.4
20260510010039 59 225 1.0 5.0 0.00 0.00 0.00 80 1017.4
20260510004541 59 268 0.0 4.0 0.00 0.00 0.00 80 1017.3
20260510003038 59 233 1.0 5.0 0.00 0.00 0.00 80 1017.2
20260510001541 59 227 3.0 5.0 0.00 0.00 0.00 80 1017.2
20260510000045 60 308 2.0 6.0 0.00 0.00 0.00 80 1017.5
20260509234535 60 250 0.0 6.0 0.00 0.00 0.00 80 1017.5
20260509233033 60 193 2.0 5.0 0.00 0.00 0.00 80 1017.5
20260509231529 60 264 1.0 5.0 0.00 0.00 0.00 80 1018.2
20260509230033 61 279 0.0 2.0 0.00 0.00 0.00 79 1017.9
20260509224526 61 222 0.0 0.0 0.00 0.00 0.00 79 1017.9
20260509223026 61 196 0.0 4.0 0.00 0.00 0.00 78 1017.8
20260509221524 61 211 0.0 0.0 0.00 0.00 0.00 78 1017.9
20260509220022 61 207 0.0 3.0 0.00 0.00 0.00 78 1018.2
20260509214520 61 250 2.0 5.0 0.00 0.00 0.00 77 1018.5
20260509213027 61 210 2.0 4.0 0.00 0.00 0.00 77 1018.5
20260509211519 61 287 1.0 4.0 0.00 0.00 0.00 76 1018.6
20260509210019 62 248 0.0 5.0 0.00 0.00 0.00 74 1018.8
20260509204519 63 226 0.0 4.0 0.00 0.00 0.00 72 1019.0
20260509203018 63 271 0.0 3.0 0.00 0.00 0.00 72 1019.0
20260509201517 64 198 2.0 6.0 0.00 0.00 0.00 71 1019.1
20260509200016 64 235 3.0 5.0 0.00 0.00 0.00 70 1019.1
20260509194515 65 283 0.0 4.0 0.00 0.00 0.00 68 1019.0
20260509193025 65 231 0.0 3.0 0.00 0.00 0.00 67 1019.1
20260509191513 65 292 2.0 5.0 0.00 0.00 0.00 67 1019.0
20260509190012 66 206 3.0 5.0 0.00 0.00 0.00 65 1018.9
20260509184528 66 163 0.0 3.0 0.00 0.00 0.00 64 1018.4
20260509183010 66 171 0.0 0.0 0.00 0.00 0.00 68 1018.3
20260509181508 65 224 0.0 4.0 0.00 0.00 0.00 67 1018.5
20260509180009 66 217 1.0 5.0 0.00 0.00 0.00 70 1018.3
20260509174507 65 157 0.0 6.0 0.00 0.00 0.00 72 1018.1
20260509173007 66 147 3.0 6.0 0.00 0.00 0.00 71 1017.9
20260509171506 66 157 3.0 5.0 0.00 0.00 0.00 71 1017.9
20260509170009 67 181 3.0 7.0 0.00 0.00 0.00 70 1018.1
20260509164505 66 75 2.0 9.0 0.00 0.00 0.00 72 1018.1
20260509163004 66 69 3.0 9.0 0.00 0.00 0.00 73 1018.1
20260509161503 66 74 5.0 9.0 0.00 0.00 0.00 74 1017.9
20260509160004 66 45 7.0 10.0 0.00 0.00 0.00 75 1017.8
20260509154503 66 67 4.0 10.0 0.00 0.00 0.00 78 1018.0
20260509153002 66 64 5.0 9.0 0.00 0.00 0.00 77 1018.3
20260509151501 66 64 5.0 10.0 0.00 0.00 0.00 76 1018.3
20260509150001 67 43 7.0 12.0 0.00 0.02 0.00 73 1018.3
20260509144600 67 40 7.0 10.0 0.00 0.02 0.00 71 1018.3
20260509143100 67 50 6.0 10.0 0.00 0.02 0.00 69 1018.2
20260509141559 67 53 7.0 11.0 0.00 0.02 0.00 68 1018.2
20260509134557 67 56 8.0 13.0 0.00 0.02 0.00 71 1018.2
20260509133058 66 55 10.0 13.0 0.00 0.02 0.00 70 1018.2
20260509131600 67 73 7.0 12.0 0.00 0.02 0.00 73 1018.2
20260509130106 68 77 8.0 14.0 0.00 0.02 0.00 68 1018.2
20260509124558 70 47 8.0 13.0 0.00 0.03 0.00 56 1018.1
20260509123055 71 103 7.0 11.0 0.00 0.03 0.00 53 1018.2
20260509121609 71 85 5.0 13.0 0.00 0.03 0.00 55 1018.3